EW1732 Weather Reports


Display with metric or nautical units.
time (UTC)temp
F
wind
direction
speed
MPH
gust
MPH
rain 1hr
in
rain 24hr
in
rain mn
in
humidity
%
barometer
mb
20260510002915 52 132 0.0 0.0 0.00 0.39 0.40 96 1010.9
20260510001940 52 132 0.0 0.0 0.00 0.39 0.40 96 1010.8
20260509234813 53 131 0.0 0.0 0.00 0.39 0.40 96 1010.7
20260509233833 53 131 0.0 0.0 0.00 0.39 0.40 96 1010.8
20260509232823 53 136 0.0 0.0 0.00 0.39 0.40 96 1010.9
20260509231832 53 126 0.0 0.0 0.00 0.39 0.40 96 1010.8
20260509230850 53 130 0.0 0.0 0.00 0.39 0.40 96 1010.8
20260509224740 53 130 0.0 0.0 0.00 0.39 0.40 96 1011.1
20260509223735 53 130 0.0 0.0 0.04 0.39 0.40 96 1011.0
20260509222735 53 130 0.0 0.0 0.09 0.39 0.40 96 1011.1
20260509221743 53 130 0.0 0.0 0.12 0.39 0.38 96 1011.3
20260509220747 53 131 0.0 0.0 0.15 0.36 0.36 96 1011.4
20260509215756 53 263 0.0 0.0 0.30 0.32 0.33 95 1011.7
20260509213629 53 263 0.0 0.0 0.23 0.26 0.27 95 1011.4
20260509212554 53 264 0.0 0.0 0.09 0.24 0.24 95 1011.8
20260509211603 54 91 0.0 0.0 0.08 0.21 0.21 95 1011.8
20260509210609 54 101 0.0 0.0 0.09 0.21 0.21 94 1012.0
20260509205608 55 96 0.0 0.0 0.00 0.19 0.19 95 1011.6
20260509203441 55 96 0.0 0.0 0.00 0.18 0.18 95 1011.7
20260509202417 55 86 0.0 0.0 0.00 0.16 0.17 94 1011.4
20260509201349 55 86 0.0 0.0 0.00 0.16 0.17 94 1011.4
20260509200356 55 86 0.0 0.0 0.06 0.16 0.17 94 1011.6
20260509195341 55 85 0.0 0.0 0.05 0.16 0.16 94 1011.7
20260509194309 55 127 0.0 0.0 0.06 0.14 0.15 93 1011.8
20260509193332 55 127 0.0 0.0 0.08 0.13 0.13 92 1011.8
20260509192335 56 355 0.0 1.0 0.19 0.12 0.13 92 1012.1
20260509191300 56 129 0.0 0.0 0.08 0.09 0.09 91 1012.1
20260509190251 57 253 0.0 0.0 0.09 0.09 0.08 89 1012.0
20260509184200 58 253 0.0 0.0 0.00 0.07 0.05 83 1011.6
20260509183217 59 248 0.0 0.0 0.00 0.06 0.04 81 1011.5
20260509182229 59 252 0.0 0.0 0.00 0.06 0.04 78 1011.2
20260509181216 60 308 0.0 0.0 0.00 0.06 0.04 78 1011.2
20260509180215 60 101 0.0 0.0 0.00 0.06 0.04 77 1011.2
20260509175200 59 310 0.0 0.0 0.00 0.06 0.04 79 1011.2
20260509174157 59 311 0.0 0.0 0.00 0.06 0.04 80 1011.2
20260509173141 59 337 0.0 0.0 0.00 0.06 0.04 79 1011.3
20260509172117 60 335 0.0 0.0 0.00 0.06 0.04 78 1011.4
20260509171136 60 335 0.0 1.0 0.00 0.06 0.04 80 1011.5
20260509170104 59 333 0.0 0.0 0.00 0.06 0.04 82 1011.6
20260509165058 58 66 0.0 3.0 0.00 0.06 0.04 83 1011.9
20260509164031 57 133 0.0 0.0 0.00 0.06 0.04 86 1012.1
20260509163011 56 133 0.0 0.0 0.00 0.06 0.04 87 1012.4
20260509161941 56 300 0.0 0.0 0.00 0.06 0.04 88 1012.4
20260509155819 55 88 0.0 0.0 0.00 0.06 0.04 88 1012.5
20260509154811 55 135 0.0 0.0 0.00 0.06 0.04 89 1012.7
20260509153750 55 141 0.0 0.0 0.00 0.06 0.04 89 1012.8
20260509152805 55 127 0.0 0.0 0.00 0.06 0.04 89 1012.8
20260509151805 55 144 0.0 0.0 0.00 0.06 0.04 89 1012.9
20260509150733 55 130 0.0 0.0 0.00 0.06 0.04 89 1012.8
20260509145712 54 127 0.0 0.0 0.00 0.06 0.04 89 1012.9
20260509144702 54 132 0.0 0.0 0.00 0.06 0.04 91 1012.9
20260509142538 52 76 0.0 0.0 0.00 0.06 0.04 93 1012.5
20260509141532 52 74 0.0 0.0 0.00 0.06 0.04 93 1012.5
20260509140551 52 347 0.0 0.0 0.00 0.06 0.04 94 1012.6
20260509135544 51 78 0.0 0.0 0.00 0.06 0.04 94 1012.9
20260509134545 50 68 0.0 1.0 0.00 0.06 0.04 94 1012.9
20260509133604 50 98 0.0 0.0 0.00 0.06 0.04 94 1013.0
20260509132558 49 348 0.0 3.0 0.00 0.05 0.03 94 1013.1
20260509131614 49 90 0.0 3.0 0.00 0.05 0.03 93 1013.0
20260509130602 49 349 0.0 0.0 0.00 0.05 0.03 93 1013.2
20260509125534 48 57 0.0 1.0 0.00 0.05 0.03 93 1013.1
20260509124516 48 68 0.0 0.0 0.00 0.05 0.03 93 1013.1
20260509122348 48 245 0.0 0.0 0.00 0.05 0.03 93 1013.7
20260509121332 47 65 0.0 1.0 0.00 0.05 0.03 93 1013.7
20260509120320 47 332 0.0 1.0 0.00 0.05 0.03 93 1013.7
20260509115328 47 60 0.0 0.0 0.00 0.05 0.03 93 1013.6
20260509113136 47 86 0.0 0.0 0.00 0.04 0.03 94 1013.6
20260509112131 47 86 0.0 0.0 0.00 0.04 0.02 94 1013.6
20260509111145 47 94 0.0 0.0 0.00 0.04 0.02 94 1013.7
20260509110111 47 94 0.0 0.0 0.00 0.04 0.02 94 1013.6
20260509105041 46 348 0.0 0.0 0.00 0.04 0.02 94 1013.5
20260509102907 46 349 0.0 0.0 0.00 0.04 0.02 95 1013.3
20260509101914 46 342 0.0 0.0 0.00 0.04 0.02 95 1013.4
20260509094715 46 32 0.0 0.0 0.00 0.04 0.02 94 1013.4
20260509093656 46 32 0.0 0.0 0.00 0.04 0.02 94 1013.4
20260509092707 46 32 0.0 0.0 0.00 0.04 0.02 94 1013.2
20260509091640 46 32 0.0 0.0 0.00 0.04 0.02 94 1013.3
20260509090642 46 32 0.0 0.0 0.00 0.04 0.02 93 1013.4
20260509084506 47 33 0.0 0.0 0.00 0.04 0.02 93 1013.3
20260509083446 47 32 0.0 0.0 0.00 0.04 0.02 93 1013.2
20260509082421 47 32 0.0 0.0 0.00 0.04 0.02 93 1013.2
20260509081430 47 32 0.0 0.0 0.00 0.04 0.02 92 1013.2
20260509080446 47 32 0.0 0.0 0.04 0.04 0.02 92 1013.4
20260509075507 47 302 0.0 0.0 0.05 0.04 0.02 91 1013.4
20260509074514 47 297 0.0 0.0 0.00 0.02 0.01 90 1013.2
20260509073510 47 297 0.0 0.0 0.00 0.02 0.00 89 1013.3
20260509072507 48 297 0.0 0.0 0.00 0.02 0.00 88 1013.1
20260509071515 48 297 0.0 0.0 0.00 0.02 0.00 87 1013.1
20260509070530 48 297 0.0 0.0 0.00 0.02 0.00 87 1013.2
20260509065529 48 297 0.0 0.0 0.00 0.02 0.00 86 1013.2
20260509063359 48 297 0.0 0.0 0.00 0.02 0.00 86 1013.2
20260509062341 48 297 0.0 0.0 0.00 0.02 0.00 87 1013.4
20260509061406 48 297 0.0 0.0 0.00 0.02 0.00 87 1013.6
20260509055229 48 297 0.0 0.0 0.00 0.02 0.00 87 1013.7
20260509054159 48 297 0.0 0.0 0.00 0.02 0.00 86 1013.9
20260509052101 49 297 0.0 0.0 0.00 0.02 0.00 87 1013.7
20260509051045 49 297 0.0 0.0 0.00 0.02 0.00 88 1013.6
20260509050109 49 297 0.0 0.0 0.00 0.02 0.00 87 1013.8
20260509045100 48 297 0.0 0.0 0.00 0.02 0.00 87 1013.8
20260509044040 48 297 0.0 0.0 0.00 0.02 0.00 87 1013.9
20260509043044 48 297 0.0 0.0 0.00 0.02 0.00 86 1013.9
20260509042012 48 297 0.0 0.0 0.00 0.02 0.00 86 1013.8
20260509040954 48 297 0.0 0.0 0.00 0.02 0.00 87 1013.9
20260509040014 48 297 0.0 0.0 0.00 0.02 0.00 86 1013.9
20260509035009 48 297 0.0 0.0 0.00 0.02 0.02 86 1014.0
20260509033946 48 297 0.0 0.0 0.00 0.02 0.02 86 1014.0
20260509031825 48 298 0.0 0.0 0.00 0.02 0.02 85 1013.8
20260509025616 48 299 0.0 0.0 0.00 0.02 0.02 85 1013.4
20260509023418 48 299 0.0 0.0 0.00 0.02 0.02 85 1013.3
20260509022354 48 300 0.0 0.0 0.00 0.02 0.02 85 1013.3
20260509021401 47 300 0.0 0.0 0.00 0.02 0.02 85 1013.3
20260509020355 47 300 0.0 0.0 0.00 0.02 0.02 84 1013.3
20260509015408 47 299 0.0 0.0 0.00 0.02 0.02 83 1013.3
20260509014404 47 299 0.0 0.0 0.00 0.02 0.02 82 1013.2
20260509012306 48 296 0.0 0.0 0.00 0.02 0.02 80 1013.1
20260509010141 49 296 0.0 0.0 0.00 0.02 0.02 75 1012.8
20260509004042 50 296 0.0 0.0 0.00 0.02 0.02 71 1012.4
20260509003029 51 296 0.0 0.0 0.00 0.02 0.02 69 1012.1